MOLNIYA 2-9 1 07276U 74026A 22175.33807615 .00000148 00000-0 00000-0 0 9994 2 07276 64.2734 226.1734 6481333 281.2826 17.0037 2.45097644249387 MOLNIYA 2-10 1 07376U 74056A 22175.87355332 .00000665 00000-0 00000-0 0 9995 2 07376 64.1292 94.0533 6725953 286.7354 13.5751 2.01189805350504 MOLNIYA 1-S 1 07392U 74060A 22176.84517675 -.00000141 00000-0 00000-0 0 9996 2 07392 5.0953 282.8468 0011698 205.2462 173.6823 1.00201183119613 MOLNIYA 1-29 1 07780U 75036A 22174.16521740 .00000246 00000-0 -27390-1 0 9990 2 07780 63.4039 214.5793 6923385 288.9049 11.8681 2.00631946345734 MOLNIYA 2-14 1 08195U 75081A 22175.10925829 .00000186 00000-0 00000-0 0 9992 2 08195 63.3910 187.2540 6820313 293.1270 11.3407 2.02106529343026 MOLNIYA 1-32 1 08601U 76006A 22175.53524581 .00001100 00000-0 28848-2 0 9998 2 08601 63.4476 296.5854 7268340 283.6748 11.0481 2.00047620 52805 MOLNIYA 1-36 1 09880U 77021A 22175.38880285 .00001268 00000-0 00000-0 0 9998 2 09880 63.4204 267.7168 7203303 289.6830 10.1404 2.00801017229504 MOLNIYA 3-8 1 10455U 77105A 22174.59615597 .00000688 00000-0 11868-2 0 9996 2 10455 63.3274 356.9994 7379085 282.1705 10.5815 2.00800105327267 MOLNIYA 1-40 1 10925U 78055A 22174.73073530 .00000674 00000-0 00000-0 0 9993 2 10925 63.2596 47.3524 7258324 280.5901 11.7812 2.00625389322801 MOLNIYA 3-10 1 11057U 78095A 22176.88495220 -.00000161 00000-0 -45273-3 0 9993 2 11057 63.1237 36.1596 5799538 310.3043 11.8742 4.09854125384071 MOLNIYA 3-13 1 11896U 80063A 22175.95444723 .00000540 00000-0 00000-0 0 9996 2 11896 62.6753 136.5443 7086892 276.2679 14.1977 2.00630085307240 MOLNIYA 1-49 1 12156U 81009A 22174.03156099 -.00000633 00000-0 12292-2 0 9993 2 12156 61.7097 164.7689 7248491 262.3062 17.7503 2.05713722221607 MOLNIYA 1-52 1 13012U 81123A 22174.74673204 -.00001177 00000-0 27927-3 0 9998 2 13012 61.8477 278.0585 7254029 254.7894 21.1501 2.00516195296708 MOLNIYA 1-53 1 13070U 82015A 22175.62966510 -.00000290 00000-0 -17930-1 0 9993 2 13070 62.6508 213.3450 7060611 282.7038 12.6234 2.00876666295408 MOLNIYA 3-20 1 13875U 83015A 22173.53047876 -.00000240 00000-0 24482-3 0 9996 2 13875 62.7840 352.0042 7400696 258.0880 18.0430 2.00397905223819 MOLNIYA 1-56 1 13890U 83019A 22174.69520300 .00001549 00000-0 94529-3 0 9994 2 13890 62.9976 17.1930 7443875 264.0891 15.2744 1.99882423286725 MOLNIYA 1-62 1 15214U 84089A 22171.90083759 .00055708 13498-5 32360-3 0 9998 2 15214 62.8914 15.6806 7501084 271.5064 12.5018 2.06078414244370 MOLNIYA 1-63 1 15429U 84124A 22176.57519431 .00001342 00000-0 00000+0 0 9992 2 15429 63.7282 167.0439 6620069 259.7578 342.8027 2.00687590274964 MOLNIYA 3-24 1 15738U 85040A 22174.81103430 -.00000139 00000-0 00000-0 0 9991 2 15738 63.6870 81.6193 6797802 247.3842 30.7687 2.55627710304039 MOLNIYA 3-27 1 16393U 85117A 22174.81790835 -.00000168 00000-0 00000-0 0 9997 2 16393 64.4242 80.7418 6968436 248.5553 27.8566 2.12397650274314 MOLNIYA 1-69 1 17078U 86089A 22174.36666547 -.00000228 00000-0 00000-0 0 9996 2 17078 64.0009 186.0483 6631943 258.2919 25.7275 2.00710178260947 MOLNIYA 3-31 1 17328U 87008A 22175.92817160 .00000399 00000-0 00000-0 0 9996 2 17328 63.7075 127.8897 7015576 254.0388 24.0085 2.00563056256014 MOLNIYA 1-71 1 18946U 88017A 22174.89733266 .00000088 00000-0 00000-0 0 9998 2 18946 63.4374 122.5641 7129550 256.5455 21.4819 2.00669008251182 MOLNIYA 1-75 1 19807U 89014A 22175.58786259 .00000137 00000-0 00000-0 0 9995 2 19807 64.0821 283.8467 6873315 267.0895 19.2388 2.00573994244141 MOLNIYA 1-80 1 21118U 91012A 22175.93638717 -.00001184 00000-0 00000-0 0 9992 2 21118 65.1881 332.1080 6800622 277.5924 15.7933 2.05246758231138 MOLNIYA 3-40 1 21196U 91022A 22173.75436273 -.00000089 00000-0 00000-0 0 9993 2 21196 65.1178 325.9199 6832126 274.3786 16.6852 2.02992192229795 MOLNIYA 1-81 1 21426U 91043A 22176.01333217 -.00000108 00000-0 00000-0 0 9990 2 21426 64.1415 343.0963 7102865 267.0267 17.1552 2.00623138227316 MOLNIYA 3-41 1 21706U 91065A 22176.23308888 .00001218 00000-0 00000-0 0 9997 2 21706 64.1092 165.2231 6819299 255.9040 25.0840 2.04341907227021 MOLNIYA 3-42 1 22178U 92067A 22175.60143949 .00000196 00000-0 00000-0 0 9993 2 22178 64.6748 215.1789 6435814 267.0000 23.1856 2.20435689 80211 MOLNIYA 1-86 1 22671U 93035A 22176.87963263 .00000083 00000-0 11327-3 0 9998 2 22671 63.0834 232.0800 4852554 7.0908 357.9224 5.62666912352775 MOLNIYA 1-87 1 22949U 93079A 22166.08817735 .00000715 00000-0 00000+0 0 9992 2 22949 63.9001 92.5417 6864141 284.4623 13.3470 2.02848473209236 MOLNIYA 1-88 1 23420U 94081A 22174.17486544 .00000119 00000-0 00000-0 0 9999 2 23420 64.2819 194.4214 5812137 283.0004 21.2261 3.34498341113897 MOLNIYA 3-47 1 23642U 95042A 22176.19265324 -.00001232 00000-0 00000-0 0 9996 2 23642 64.0207 73.2970 6920606 284.6274 12.9281 2.01971292197179 MOLNIYA 1-90 1 24960U 97054A 22176.25228586 .00000094 00000-0 -32535-3 0 9997 2 24960 63.6394 160.8599 6123071 298.7264 13.5911 3.18689999208259 MOLNIYA 1-91 1 25485U 98054A 22176.39402506 .00000155 00000-0 22925-2 0 9990 2 25485 63.0257 148.9389 6779037 291.9050 324.7565 2.36445635178563 MOLNIYA 3-50 1 25847U 99036A 22175.49625179 .00000034 00000-0 -15133-3 0 9997 2 25847 63.1657 333.2939 7393495 281.9002 10.5893 2.00622759168251